星链-32830 (STARLINK-32830)

导读 | 星芒AI

STARLINK-32830 是 SpaceX 星链计划中的一颗低轨通信卫星,属于第 11 批组网发射的星链卫星之一。该卫星运行在约 550 公里的高度,旨在为全球用户提供高速互联网服务。作为星链星座的一部分,它支持宽带接入,尤其服务于传统网络难以覆盖的偏远地区。该卫星采用先进推进系统,具备自主变轨和避障能力,有助于提升星座运行效率和安全性。

基本信息
目录编号:
63034
目录名称:
STARLINK-32830
国际标识:
2025-034F
轨道中心:
EARTH
卫星名称:
星链-32830
卫星全名:
星链-32830 (STARLINK-32830)
卫星状态:
在轨 (已飞行262 天)
发射日期:
2025-02-18 UTC
国别 :
美国 (US)
星等 :
--
轨道信息
数据来源 国际轨道数据
星历时间: 2025-11-06T19:41:25+0800
1天前
查看轨道信息
半长轴: 6853.293km
偏心率: 0.0001299
轨道倾角: 53.158°
近地点辐角 101.078°
升交点赤经 110.413°
平近点角 259.036°
近地点: 474.267km
远地点: 476.049km
周期: 94.104分钟
每日圈数: 15.302201
详细信息
固有亮度:
5
最大亮度:
2.5
卫星平台:
Starlink V1.0
覆盖范围:
全球
运营商:
太空探索技术公司
运营商所在国:
美国
制造商(研发单位):
太空探索技术公司
制造商所在国:
美国
使用方式:
暂无
卫星简介
Starlink 计划是 SpaceX 推出的全球卫星互联网项目,通过发射低轨道卫星,为全球尤其是偏远地区提供高速、低延迟的互联网服务。自 2019 年起,Starlink 已部署数千颗卫星,旨在缩小全球数字鸿沟,推动互联网普及。该项目还为军事、航空等行业提供通信支持,带来广泛经济效益。
2D轨道图
3D轨道图
轨道高度分析图
轨道倾角分析图
轨道综合分析图
查看轨道综合分析图